TIME,DELAY(SENSOR),PRES,T(CTD),SAL,OXYGEN,RAWTEMP,T(OPTODE),TCPHASE,FLUOR,BETA(BETA700),BETA(BETA412),BETA(BETA440),CDOM,C(CSC),ED(ED412.40),ED(ED444.00),ED(ED489.70),ED(ED554.30),LU(LU411.80),LU(LU443.40),LU(LU489.60),LU(LU554.10),COMP,TILTX,TILTX(TILTY),CHECK
1376771400,5808,497.6400146484375000,6.5050997734069820,34.1254997253418000,79.3197021484375000,603.2061157226562000,6.4806480407714840,49.0372314453125000,51,103,84,80,78,15297,2147749037,2147426596,2148009545,2147874093,2147632137,2147067757,2148240822,2147196781,2640,4,13,3897
1376771574,5808,483.5199890136719000,6.6261000633239750,34.1012001037597660,86.5735168457031200,599.1729125976562000,6.6109809875488280,48.1428718566894500,52,103,86,79,77,15298,2147748434,2147425563,2148008758,2147872896,2147631131,2147070884,2148243145,2147201481,1089,4,13,24316
1376771695,5808,471.6700134277344000,6.9408001899719240,34.0924987792968750,96.8184661865234400,589.5048217773438000,6.9227809906005860,46.8671493530273440,51,105,85,79,76,15295,2147746185,2147424301,2148007753,2147872320,2147632118,2147070427,2148241590,2147200411,1014,4,13,59100
1376771807,5809,460.6300048828125000,7.2449998855590820,34.0966987609863300,105.4039001464843800,578.7753295898438000,7.2677960395812990,45.7992782592773440,51,102,89,80,76,15297,2147742400,2147427392,2148005997,2147873170,2147629494,2147079186,2148237888,2147201307,519,4,12,15262
1376771917,5812,449.8800048828125000,7.5177001953125000,34.1142997741699200,107.1717987060546900,567.9567871093750000,7.6146221160888670,45.4447593688964840,52,104,82,79,76,15294,2147744868,2147423424,2148006701,2147874825,2147627245,2147076004,2148236836,2147199990,3117,4,13,26281
1376772027,5807,439.1400146484375000,7.8615999221801760,34.1361999511718750,102.0749969482421900,560.5128173828125000,7.8526778221130370,45.8522186279296900,51,103,86,79,76,15291,2147746038,2147424310,2148006985,2147872704,2147623835,2147080448,2148236169,2147203291,2532,4,13,47342
1376772139,5808,428.4200134277344000,8.0803003311157230,34.1440010070800800,110.0779037475586000,554.0997924804688000,8.0573806762695310,44.9251899719238300,51,104,86,80,75,15293,2147740781,2147425133,2148009700,2147870628,2147624630,2147078985,2148231396,2147201362,2465,4,13,18539
1376772260,5808,417.4800109863281000,8.4097995758056640,34.1623001098632800,108.2619018554687500,543.4335937500000000,8.3970890045166020,44.9376487731933600,51,102,86,79,75,15291,2147739620,2147423606,2148005229,2147872813,2147620653,2147079378,2148235584,2147203958,2142,3,13,30226
1376772392,5805,406.6199951171875000,8.5269002914428710,34.1316986083984400,124.2284011840820300,539.7501831054688000,8.5141868591308600,43.3127708435058600,51,104,85,80,74,15294,2147740452,2147423241,2148007707,2147871771,2147620845,2147085632,2148231113,2147203081,1789,3,13,10675
1376772537,5806,395.8599853515625000,8.8115997314453120,34.1307983398437500,136.6822967529297000,530.9285888671875000,8.7941951751708980,42.0348205566406250,50,105,86,80,74,15292,2147740973,2147422729,2148002742,2147873490,2147618194,2147085842,2148228452,2147198098,958,4,13,42253
1376772691,5805,384.5799865722656000,9.2061004638671880,34.1425018310546900,138.8258972167968800,518.3596801757812000,9.1921062469482420,41.6338996887207000,50,107,88,79,74,15290,2147737737,2147424704,2148004032,2147873590,2147616713,2147089499,2148228489,2147201197,1726,3,13,62048
1376772832,5809,372.7200012207031000,9.4468002319335940,34.1384010314941400,149.2416992187500000,510.4985961914062500,9.4403781890869140,40.6213493347168000,50,104,85,79,73,15291,2147734226,2147422829,2148004571,2147873270,2147612489,2147097289,2148224960,2147204681,1225,3,13,21726
1376772941,5807,361.8599853515625000,9.6932001113891600,34.1363983154296900,157.8392028808593800,502.3858947753906000,9.6961269378662110,39.7962684631347660,50,104,87,78,72,15293,2147736685,2147424091,2148005750,2147872438,2147614528,2147099081,2148225874,2147203766,3263,3,13,2028
1376773051,5807,350.4700012207031000,10.0215997695922850,34.1319007873535160,165.8549041748047000,492.2654113769531000,10.0145301818847660,39.0130615234375000,49,105,86,79,71,15292,2147735122,2147423570,2148007314,2147875355,2147612653,2147104457,2148223643,2147204086,2955,3,13,5901
1376773152,5807,340.0400085449219000,10.3217000961303710,34.1341018676757800,175.0415954589843800,482.8207092285156000,10.3110399246215820,38.1843414306640600,49,105,84,79,70,15291,2147731840,2147426624,2148007012,2147873536,2147611547,2147102226,2148226523,2147207323,2998,4,13,62943
1376773262,5810,329.1799926757812500,10.6350002288818360,34.1357002258300800,180.8538970947265600,472.8464965820312500,10.6235399246215820,37.6121788024902340,49,104,84,81,70,15289,2147733595,2147426194,2148007579,2147871917,2147608749,2147103323,2148218496,2147205101,2325,3,13,44520
1376773383,5805,317.8099975585937500,11.0143995285034180,34.1422996520996100,189.1183013916015600,459.7932128906250000,11.0315799713134770,36.8428192138671900,49,104,86,78,69,15293,2147730176,2147427675,2148016182,2147874523,2147608969,2147108132,2148218797,2147200182,1442,3,13,36921
1376773495,5810,307.2200012207031000,11.3804998397827150,34.1481018066406250,192.9214019775390600,448.6073913574219000,11.3804397583007810,36.4134712219238300,49,103,86,79,69,15294,2147730084,2147428032,2148017654,2147876269,2147604736,2147106706,2148222326,2147207451,983,3,13,37759
1376773616,5813,296.2500000000000000,11.7046003341674800,34.1537017822265600,192.7922058105468800,438.2185058593750000,11.7038097381591800,36.2524604797363300,49,105,86,81,68,15291,2147729600,2147428269,2148024036,2147874102,2147604745,2147110848,2148222354,2147208054,1094,3,14,3218
1376773750,5808,285.3200073242187500,12.3141002655029300,34.1883010864257800,195.3603973388672000,418.5174865722656000,12.3154602050781250,35.7735099792480500,49,103,85,80,68,15292,2147727661,2147431030,2148034880,2147873234,2147603666,2147111515,2148227410,2147209792,620,3,13,48338
1376773915,5809,274.8500061035156000,12.7854995727539060,34.2109985351562500,199.9889068603515600,403.3807067871094000,12.7841196060180660,35.2474899291992200,49,103,85,80,68,15288,2147724498,2147437348,2148043209,2147872292,2147599552,2147122688,2148226733,2147206976,874,3,13,58472
1376774091,5807,263.1499938964844000,13.1667995452880860,34.2350006103515600,200.7402954101562500,390.6965026855469000,13.1760501861572270,35.0032310485839840,49,103,86,79,68,15287,2147722934,2147443712,2148068534,2147872338,2147595273,2147132928,2148234020,2147207369,2879,3,14,33704
1376774208,5805,252.0099945068359400,13.9932003021240230,34.3400001525878900,210.9226074218750000,364.6841125488281000,13.9777898788452150,34.0056915283203100,48,103,86,79,67,15286,2147724772,2147454144,2148097298,2147876562,2147593920,2147141430,2148249691,2147213970,2160,3,13,34577
1376774318,5810,240.4700012207031200,14.4496002197265620,34.3964004516601560,219.4476928710937500,349.4400939941406000,14.4464998245239260,33.3027687072753900,47,103,84,78,66,15289,2147722459,2147472036,2148142976,2147876388,2147593298,2147158793,2148266048,2147209197,1065,3,13,35387
1376774430,5809,229.9499969482422000,15.2519998550415040,34.4719009399414060,220.8356018066406200,322.2582092285156000,15.2805500030517580,32.8274688720703100,49,101,86,80,65,15284,2147725001,2147495149,2148200073,2147874304,2147590162,2147166994,2148292260,2147212891,2776,2,14,63712
1376774562,5808,219.6300048828125000,15.8156003952026370,34.5223999023437500,214.4860992431640600,301.2058105468750000,15.9252901077270500,32.8661003112793000,49,102,86,79,65,15283,2147725312,2147531702,2148273910,2147878016,2147587702,2147194194,2148320877,2147220233,935,2,14,9041
1376774716,5809,209.0000000000000000,16.9051990509033200,34.6585998535156250,216.9351043701172000,268.3225097656250000,16.9307994842529300,32.2622985839843750,49,101,86,80,65,15282,2147736941,2147579373,2148380461,2147875072,2147586377,2147234212,2148370496,2147222336,2476,3,14,34026
1376774853,5809,196.8600006103515600,18.0431995391845700,34.8000984191894500,217.7371978759765600,230.9002990722656200,18.0738391876220700,31.6965007781982420,50,102,86,79,63,15280,2147756681,2147662838,2148549046,2147874971,2147588470,2147288612,2148448896,2147228818,1596,2,14,29239
1376774908,5808,191.4700012207031200,18.3642997741699220,34.8469009399414060,217.5137023925781200,221.0216979980468800,18.3755207061767580,31.5717792510986330,50,103,87,79,64,15276,2147769088,2147715611,2148661010,2147874980,2147593874,2147324452,2148503616,2147235090,982,1,14,5630
1376774963,5807,186.2299957275390600,18.7012996673584000,34.8944015502929700,217.0744934082031200,208.9087982177734400,18.7454490661621100,31.4292507171630860,51,103,86,80,63,15274,2147787392,2147774299,2148781833,2147873901,2147601060,2147369563,2148559350,2147234962,3484,2,15,20505
1376775041,5808,179.3000030517578000,19.2306003570556640,34.9662017822265600,217.5036926269531200,193.6004943847656200,19.2131004333496100,31.1982307434082030,53,104,85,80,64,15270,2147815250,2147866934,2148957312,2147875949,2147613924,2147430610,2148646738,2147240896,3004,3,14,13016
1376775096,5810,174.8899993896484400,19.3703002929687500,34.9893989562988300,218.4938964843750000,186.5411071777343800,19.4288196563720700,31.0508003234863280,53,103,87,78,63,15270,2147845440,2147958345,2149140114,2147875830,2147622070,2147489307,2148731977,2147252105,3170,2,15,46721
1376775151,5807,170.7100067138672000,19.6578006744384770,35.0233993530273440,218.1558990478515600,177.8329010009765600,19.6949996948242200,30.9510993957519530,57,110,86,80,62,15268,2147881408,2148038107,2149288027,2147878573,2147637330,2147538706,2148803108,2147256100,2704,2,15,4351
1376775206,5807,166.7599945068359400,19.8815994262695300,35.0526008605957000,218.0095062255859400,172.3132934570312500,19.8637695312500000,30.8846702575683600,58,109,85,80,62,15258,2147915401,2148121280,2149441472,2147881472,2147651108,2147596864,2148877129,2147263332,2491,2,15,36744
1376775261,5809,162.8899993896484400,19.9284000396728500,35.0429000854492200,217.6212005615234400,170.6154022216797000,19.9156894683837900,30.8821392059326170,64,109,89,81,62,15258,2147962304,2148211145,2149603821,2147877056,2147669568,2147648621,2148952676,2147268598,2384,1,15,40272
1376775316,5804,159.2799987792968800,20.1958007812500000,35.0648002624511700,213.9266967773437500,161.0601959228515600,20.2079792022705080,30.9491901397705080,69,110,86,81,62,15251,2148020845,2148338203,2149821531,2147880091,2147691803,2147720128,2149045202,2147273124,1695,2,15,6579
1376775400,5807,154.5700073242187500,20.5746002197265620,35.1063995361328100,213.7111053466797000,149.9147033691406200,20.5491294860839840,30.8117904663085940,76,114,88,81,63,15242,2148123483,2148544740,2150161344,2147884022,2147728256,2147812900,2149181677,2147283977,1627,2,15,35948
1376775488,5806,150.6499938964843800,20.8036003112792970,35.1311988830566400,215.0863037109375000,142.3849945068359400,20.7797393798828120,30.6390209197998050,81,116,86,82,63,15234,2148248109,2148778057,2150544128,2147888210,2147775478,2147938395,2149347785,2147296045,1325,2,15,11211
1376775576,5811,146.5899963378906200,21.0636005401611330,35.1567993164062500,216.1573028564453000,133.7532043457031200,21.0442600250244140,30.4687099456787100,94,117,87,80,62,15227,2148420928,2149089728,2151042514,2147892818,2147840896,2148093915,2149565558,2147314020,1024,2,16,14748
1376775664,5807,142.8699951171875000,21.2907009124755860,35.1850013732910160,217.6163940429687500,127.2514038085937500,21.2436408996582030,30.3074798583984380,96,118,88,81,62,15218,2148628260,2149458971,2151626139,2147896704,2147920896,2148267858,2149787739,2147334061,392,2,15,44879
1376775776,5809,138.8399963378906200,21.4969997406005860,35.2089996337890600,219.2429046630859400,119.7436981201171900,21.4739894866943360,30.1254901885986330,100,118,87,81,62,15208,2148865270,2149842916,2152188251,2147905581,2148014006,2148449910,2150019072,2147353709,1255,2,15,42770
1376775908,5809,135.1399993896484400,21.5408000946044920,35.2188987731933600,221.4763946533203000,117.3771972656250000,21.5466308593750000,29.9812908172607420,106,119,85,81,61,15205,2149199570,2150389686,2153041517,2147916699,2148142500,2148708864,2150338925,2147379401,910,1,15,10109
1376776075,5807,130.8000030517578000,21.9211006164550780,35.2711982727050800,225.8690032958984400,105.8946990966796900,21.8993301391601560,29.6139602661132800,113,123,89,81,60,15185,2149709540,2151157101,2154165622,2147930706,2148351588,2149038464,2150746468,2147416219,406,2,15,44852
1376776174,5810,127.0000000000000000,22.1494998931884770,35.2977981567382800,229.5917053222656200,99.8397903442382800,22.0854892730712900,29.3550796508789060,121,121,87,82,61,15175,2150266322,2152021577,2155420717,2147950290,2148571584,2149405787,2151193883,2147458678,611,2,15,24374
1376776262,5805,123.6500015258789000,22.2078990936279300,35.3081016540527340,231.7310028076172000,95.6428070068359400,22.2145900726318360,29.1993198394775400,128,122,91,83,59,15164,2150821037,2152859309,2156631085,2147971748,2148795629,2149748525,2151636397,2147496128,3325,1,16,46844
1376776369,5809,118.5199966430664000,22.3922004699707030,35.3210983276367200,234.5771026611328000,90.6168365478515600,22.3692703247070300,29.0009803771972660,125,120,87,82,60,15162,2151284470,2153383652,2157095945,2147986084,2148978569,2149914532,2151732032,2147516187,2274,2,16,7852
1376776424,5807,115.1900024414062500,22.5618991851806640,35.3387985229492200,236.4539031982422000,84.6974868774414000,22.5515708923339840,28.8387794494628900,127,120,89,82,60,15166,2153046427,2156198994,2161284790,2148063524,2149687305,2151161938,2153355574,2147658806,2346,1,16,57911
1376776490,5805,111.3799972534179700,22.6270999908447270,35.3404998779296900,239.1813964843750000,82.5394515991211000,22.6180591583251950,28.6862106323242200,120,119,90,84,60,15166,2154302244,2157962733,2163468653,2148122112,2150218093,2151934418,2154189476,2147740096,2060,1,15,15003
1376776567,5806,107.0999984741211000,22.6891002655029300,35.3446998596191400,240.1728973388672000,80.3772811889648400,22.6847000122070300,28.6140098571777340,116,117,90,83,60,15173,2156272146,2160791268,2167058084,2148212379,2151079241,2153201453,2155614390,2147876845,1320,2,15,786
1376776633,5808,103.6600036621093800,22.8316001892089840,35.3451004028320300,240.7062072753906200,77.1590499877929700,22.7839107513427730,28.5495090484619140,108,119,90,82,60,15167,2158691949,2164294308,2171584713,2148333970,2152118116,2154783168,2157350454,2148049819,705,2,15,16177
1376776723,5810,99.8199996948242200,22.9937000274658200,35.3395004272460940,241.9555053710937500,70.8403091430664000,22.9788398742675780,28.4139595031738280,95,125,91,83,57,15171,2157448219,2161571090,2166512658,2148247561,2151841627,2153946624,2155996461,2147927414,1346,1,15,2022
1376776778,5806,97.7099990844726600,23.0410995483398440,35.3412017822265600,243.8047943115234400,69.0483169555664000,23.0341491699218750,28.3090095520019530,91,125,90,84,59,15167,2162253686,2168469632,2175517796,2148511908,2153906267,2157088905,2159542061,2148263451,1609,1,16,9332
1376776833,5810,95.6900024414062500,23.0932006835937500,35.3342018127441400,244.4676971435547000,67.2934036254882800,23.0883293151855470,28.2578201293945300,89,125,91,83,58,15161,2159652854,2164159515,2169074496,2148375286,2152858532,2155153883,2156975104,2148035657,1326,1,16,60790
1376776888,5805,93.8499984741211000,23.1623992919921880,35.3222007751464840,244.3804016113281200,65.1449966430664000,23.1546707153320300,28.2347507476806640,90,125,92,85,58,15165,2165957577,2172904201,2180125714,2148715053,2155825243,2159614509,2161924918,2148500836,843,1,16,21316
1376776943,5805,92.1800003051757800,23.1830997467041000,35.3176002502441400,244.2442016601562500,64.3998184204101600,23.1776905059814450,28.2315101623535160,87,125,90,83,58,15162,2168641755,2176220553,2183624539,2148849014,2157202569,2161547684,2163817792,2148677787,518,1,15,29370
1376777027,5808,88.8000030517578100,23.2441997528076170,35.3196983337402340,244.1208038330078000,61.6829681396484400,23.2616195678710940,28.2031898498535160,83,127,89,84,60,15155,2173842313,2182365366,2190300342,2149194596,2159784877,2164977764,2167085302,2149014665,3414,1,16,3103
1376777082,5806,85.6100006103515600,23.3446998596191400,35.3204002380371100,244.3535003662109400,59.1001586914062500,23.3414497375488280,28.1606407165527340,82,125,91,84,60,15162,2178712164,2188075236,2196473792,2149542610,2162278354,2168246756,2170174838,2149331017,3020,1,16,6204
1376777137,5805,82.3199996948242200,23.3878002166748050,35.3157997131347660,244.5646972656250000,57.4346389770507800,23.3929405212402340,28.1307106018066400,81,126,90,84,59,15164,2183247186,2192738614,2200808667,2149918025,2164911981,2171446400,2173018953,2149635501,2590,1,17,378
1376777192,5808,78.8899993896484400,23.4775009155273440,35.3021011352539060,244.8249969482422000,54.9359207153320300,23.4702091217041000,28.0881500244140620,78,128,91,85,56,15150,2189916580,2200441673,2209043602,2150602733,2168255652,2175668571,2176796662,2150072868,2305,1,16,40348
1376777247,5810,75.6200027465820300,23.5667991638183600,35.3033981323242200,245.1029052734375000,52.0503005981445300,23.5594806671142580,28.0400905609130860,81,125,92,85,59,15152,2197323117,2209077750,2218185371,2151354075,2172365357,2180738761,2181404571,2150602678,1631,1,16,9963
1376777304,5805,72.5999984741211000,23.6170997619628900,35.2990989685058600,245.3157958984375000,50.2791595458984400,23.6142902374267580,28.0086708068847660,78,128,91,85,60,15145,2195604763,2205375222,2212163428,2151296530,2172012617,2179397622,2179135149,2150435291,965,2,16,50580
1376777359,5808,70.1399993896484400,23.7096004486084000,35.2872009277343750,245.5115051269531200,48.0576782226562500,23.6830596923828120,27.9726905822753900,77,130,92,88,59,15139,2194088356,2202049462,2207006089,2151186075,2171872566,2178528978,2177717101,2150316461,767,2,16,29939
1376777414,5808,68.1500015258789000,23.7931003570556640,35.2919998168945300,245.7245941162109400,44.6553497314453100,23.7884197235107420,27.9211502075195300,75,129,92,86,56,15141,2191977499,2198384338,2201917494,2150985490,2170988132,2176667766,2175291501,2150099282,969,1,16,12841
1376777469,5805,66.7399978637695300,23.8682003021240230,35.2895011901855500,246.1622924804687500,42.4670104980468750,23.8562202453613280,27.8750495910644530,73,130,91,87,57,15131,2180046646,2183354925,2184677092,2149944438,2164745746,2168241243,2167191588,2149189979,1195,2,16,20038
1376777557,5806,65.8199996948242200,24.0163993835449220,35.2899017333984400,246.3724060058593800,37.7448501586914060,24.0026092529296880,27.8075408935546880,72,134,90,85,57,15128,2184861110,2188187757,2189180416,2150289133,2167689856,2171436306,2169523291,2149492608,1858,1,16,38278
1376777751,5809,63.3800010681152340,24.3428001403808600,35.3044013977050800,247.4582977294922000,26.8992691040039060,24.3392295837402340,27.6272106170654300,68,129,93,86,56,15121,2192552256,2194690715,2193993353,2150730806,2173184859,2176615862,2171586861,2149848850,3482,1,16,48549
1376777806,5807,61.6500015258789060,24.3715991973876950,35.2840003967285160,248.3679046630859400,26.0422592163085940,24.3658504486084000,27.5775909423828120,66,131,92,86,56,15119,2192617837,2194076278,2192877120,2150797476,2173840603,2176905563,2171400411,2149860288,3115,1,16,39580
1376777861,5809,59.6599998474121100,24.3717002868652340,35.2683982849121100,249.1128997802734400,25.8944492340087900,24.3704490661621100,27.5438098907470700,68,129,91,86,59,15115,2201080338,2202685577,2201173302,2151678802,2179069010,2182673965,2177050075,2150122752,74,1,16,26835
1376777944,5810,55.8600006103515600,24.5480003356933600,35.2510986328125000,250.2283020019531200,20.5280094146728500,24.5372600555419920,27.4305706024169920,68,133,92,87,55,15102,2226984347,2229004864,2226813458,2154602861,2194773732,2200703460,2191606994,2152091309,3204,1,16,55748
1376777999,5810,53.0099983215332000,24.7080001831054700,35.2708015441894500,250.3457031250000000,14.7967996597290040,24.7155895233154300,27.3556003570556640,65,133,94,88,58,15105,2232112777,2232650148,2229621851,2155682285,2196708690,2204087798,2194286674,2152728566,2837,1,15,52957
1376778054,5808,50.4900016784668000,24.9528007507324220,35.2820014953613300,250.5601959228515600,7.5457239151000980,24.9414691925048830,27.2579803466796880,65,132,93,86,55,15102,2243842011,2243826752,2240216603,2157706806,2209675849,2214015881,2199945197,2153510308,2071,1,16,47534
1376778109,5807,48.7099990844726560,25.1830005645751950,35.2723007202148440,250.7032012939453000,2.4409890174865723,25.1006603240966800,27.1898803710937500,63,138,91,87,61,15106,2280072786,2281234313,2277421760,2163162404,2234538212,2240950363,2221754962,2155387712,1877,1,16,64538
1376778175,5808,47.6100006103515600,25.3574008941650400,35.2851982116699200,250.6383056640625000,-3.8610310554504395,25.2974090576171880,27.1159706115722660,63,136,95,86,55,15096,2271682432,2271773440,2267266230,2162277686,2230194825,2235156059,2210873435,2155664310,1523,2,16,11858
1376778303,5807,45.3400001525878900,25.5788993835449220,35.2756004333496100,250.2805938720703000,-12.5061798095703120,25.5676898956298830,27.0262908935546880,59,136,97,84,55,15105,2259815798,2257439652,2251799945,2160931785,2227309897,2229445403,2210541650,2154451483,1092,1,17,50740
1376778358,5805,43.9500007629394500,25.8593997955322270,35.2593994140625000,249.3527069091797000,-18.4829692840576170,25.7548198699951170,26.9929695129394530,58,134,95,87,56,15102,2261994953,2258814738,2252543588,2161563794,2231426779,2232656146,2212266368,2155016292,800,2,16,37856
1376779133,5808,42.1899986267089840,27.2712001800537100,35.3282012939453100,228.9400024414062500,-67.1045837402343800,27.2861003875732420,27.3023109436035160,55,121,91,84,56,15094,2292280859,2288645348,2281212105,2167827693,2271118070,2267652644,2234964964,2158773668,2200,1,16,40201
1376779217,5808,38.8499984741210940,27.2905998229980470,35.3303985595703100,227.9680938720703000,-67.3801498413086000,27.2948303222656250,27.3438892364501950,54,120,87,84,57,15126,2273342226,2268427099,2261112228,2166528667,2260977179,2254608228,2223736045,2157608109,2575,1,16,45518
1376779272,5807,35.6399993896484400,27.2957000732421880,35.3303985595703100,227.4230957031250000,-67.6267013549804700,27.3026409149169920,27.3661003112792970,53,120,91,83,55,15123,2293290313,2288350016,2281379547,2173909193,2285805686,2276760210,2238765888,2160394450,2611,1,16,61844
1376779327,5808,32.5499992370605500,27.3059997558593750,35.3306999206543000,227.0267028808593800,-67.8648986816406200,27.3101806640625000,27.3815994262695300,54,122,90,84,53,15118,2355737161,2352907721,2348255396,2195603904,2349882249,2337311204,2281885878,2168462473,2608,1,17,54789
1376779382,5807,29.7399997711181640,27.3071994781494140,35.3314018249511700,227.0171051025390600,-67.9789886474609400,27.3138008117675780,27.3807201385498050,54,122,89,83,54,15126,2382819821,2379962706,2376084992,2209812397,2397148672,2379863899,2310656978,2173721435,2462,0,17,63864
1376779437,5808,27.1499996185302730,27.3092002868652340,35.3307991027832000,226.9463958740234400,-68.1546325683593800,27.3193607330322270,27.3818302154541000,52,120,89,84,57,15132,2347614290,2342246153,2336494244,2202661174,2370628278,2350109385,2286731017,2170546240,2390,1,16,12042
1376779494,5808,24.5900001525878900,27.3131999969482420,35.3302001953125000,227.2158966064453000,-68.7212066650390600,27.3373107910156250,27.3622703552246100,54,119,89,83,55,15132,2555505856,2561215186,2569783954,2297740918,2592198427,2560056027,2437759661,2201259053,2104,1,16,19264
